Location: Ammerl�gen
(47.2167°N, 9.6000°E)
Time: 11:28:00
(UTC+00:00)

DMSP 5D-2 F13 DEB - Pass Details

Date: 28 October 2021
Orbit: 758 x 780 km, 98.7° (Epoch: 25 November)

Event Time Altitude Azimuth Distance (km) Brightness Sun altitude
Exits shadow 18:45:45 32° 10° (N) 1,286 ? -26.8°
Drops below altitude 10° 18:48:36 10° 354° (N) 2,302 ? -27.2°
Sets 18:50:57 0° 350° (N) 3,231 ? -27.6°
